Wind_Speed
31 31 33 34 35 35 36 36 36 36 37 38 37 38 39 39 40 40 41 41 41 41 41 41 42 42 42 43 43 43 44 44 45 45 45 45 46 46
30 31 32 34 35 34 33 35 35 36 36 37 38 38 39 39 39 39 38 39 39 40 40 40 40 41 41 41 41 41 41 42 42 42 42 41 41 41
29 30 31 31 31 31 32 33 35 35 36 36 37 37 37 37 37 37 37 38 38 39 40 39 39 39 39 39 38 38 38 38 38 38 37 37 36 36
28 29 29 29 29 29 30 32 33 33 34 34 34 35 35 35 35 35 36 37 37 37 37 37 38 37 37 36 35 35 35 34 34 34 33 33 33 33
26 27 27 27 27 28 29 29 30 31 31 31 32 32 33 33 34 34 34 34 34 34 34 34 34 33 32 32 31 31 32 32 32 31 31 31 31 31
25 25 25 26 27 27 27 27 27 28 28 29 29 30 31 31 31 31 30 30 31 31 31 30 29 28 28 28 28 28 28 28 28 28 27 27 27 28
24 24 25 25 25 25 25 25 25 26 27 27 28 28 28 28 28 28 28 28 28 27 26 26 25 25 25 25 25 25 25 25 25 24 24 24 24 24
23 23 23 22 22 22 23 23 24 25 26 26 26 26 26 26 26 25 25 25 24 24 24 23 23 23 22 22 22 22 22 22 22 22 22 22 22 23
22 21 20 20 21 21 22 22 23 24 24 24 24 24 24 24 24 23 22 22 22 22 21 21 20 20 19 19 19 19 20 20 20 20 20 21 22 22
19 19 20 20 20 21 21 22 22 22 22 22 22 22 22 22 21 20 20 20 19 19 18 18 17 16 16 16 16 17 18 19 18 18 19 20 21 21
18 18 19 19 19 20 20 20 20 20 20 19 19 19 19 19 18 17 17 16 16 15 15 15 14 14 14 14 15 16 17 17 17 17 18 19 20 21
17 18 18 18 18 18 18 18 18 17 17 17 18 18 17 17 15 15 14 14 13 13 12 12 12 12 13 13 14 15 16 16 16 17 18 19 19 20
15 15 16 16 16 16 16 16 16 16 15 16 16 15 15 14 13 12 12 12 11 11 10 10 10 11 11 12 12 13 14 15 16 17 17 18 18 19
13 14 14 15 15 15 14 14 14 14 14 14 13 13 12 11 10 10 10 9 9 9 9 9 9 9 10 10 11 12 14 15 16 16 17 17 18 19
12 12 12 12 12 13 13 13 13 13 12 12 11 11 10 9 9 9 8 8 8 8 7 7 7 8 9 10 11 12 13 14 15 16 16 17 18 19
11 11 11 11 11 11 11 11 11 11 10 10 9 9 8 7 7 7 7 6 6 6 6 6 7 8 9 10 11 12 12 13 14 16 16 17 18 18
9 9 9 9 10 10 9 9 9 9 8 8 7 7 6 6 6 5 5 5 5 4 4 5 6 8 9 10 11 11 12 13 14 15 16 17 18 19
6 7 7 8 8 7 7 7 7 6 6 6 5 5 4 4 4 4 3 3 3 3 4 5 6 8 9 10 10 11 12 13 14 15 17 18 18 19
4 4 5 5 5 4 4 5 4 4 4 3 3 2 2 2 2 2 2 2 2 2 4 5 6 8 8 9 10 11 12 13 15 16 17 18 19 20
3 3 3 3 3 3 3 3 3 2 1 1 1 1 0 0 0 1 1 1 2 3 4 5 6 7 8 9 10 11 12 14 15 16 17 18 19 20
4 4 3 3 3 3 3 2 2 1 0 0 1 1 1 1 1 1 1 2 2 4 5 6 7 7 8 9 10 12 13 14 15 16 17 18 20 21
6 5 5 4 4 4 3 3 2 2 2 2 2 2 2 2 2 2 2 2 3 4 5 6 6 7 8 9 10 12 13 14 16 17 18 19 20 21
8 7 7 6 6 6 5 5 4 4 4 3 3 3 2 2 2 2 2 3 4 5 5 6 7 7 8 9 11 12 13 15 16 17 19 20 21 22
Wind_Direction
262 262 263 264 264 264 266 266 267 268 270 273 275 278 279 279 280 282 283 285 286 287 287 288 289 290 290 290 290 290 289 288 287 287 286 285 285 284
263 263 265 266 265 265 267 267 267 269 272 274 276 278 278 278 280 282 283 285 287 288 288 289 289 290 290 290 290 290 290 290 290 289 289 289 288 289
265 266 266 266 265 267 269 270 271 272 274 274 275 276 277 279 281 283 285 287 288 288 288 289 290 290 290 291 291 292 292 292 292 293 292 292 292 292
268 268 267 268 269 270 270 271 272 272 272 273 275 277 279 280 282 284 286 288 288 289 290 290 290 291 292 293 293 294 294 295 296 297 296 295 295 295
268 267 267 270 270 269 271 271 271 271 272 274 277 279 280 282 284 285 286 288 289 290 291 291 292 292 294 296 296 297 299 300 300 301 302 301 300 300
267 267 269 271 270 271 271 273 274 274 276 278 279 280 281 282 284 285 287 288 289 291 291 292 293 295 296 297 300 301 302 304 305 306 307 307 307 307
267 268 268 270 272 272 273 275 276 277 280 281 281 281 282 283 284 285 286 288 289 290 292 293 294 297 299 301 302 304 307 308 310 311 311 311 311 311
267 268 269 270 272 273 275 276 277 278 279 280 280 280 282 284 285 284 286 287 289 290 291 293 295 297 300 303 305 307 310 312 314 315 316 318 319 319
266 267 268 271 274 275 275 277 278 279 279 279 280 281 281 283 284 283 284 286 288 290 291 293 295 297 301 304 308 312 314 316 318 319 321 323 324 325
264 267 270 274 275 275 276 277 278 279 280 281 281 282 282 283 282 282 283 285 288 291 293 294 296 300 305 308 312 315 318 321 323 323 325 326 327 327
266 269 272 274 274 276 277 278 279 281 281 281 281 282 282 282 281 281 283 286 288 292 294 296 300 305 309 313 317 321 324 326 327 328 328 330 331 332
268 270 272 274 275 277 278 280 281 281 281 280 282 282 282 282 281 282 284 286 290 294 296 299 304 309 313 317 321 325 328 331 332 332 332 333 335 338
271 272 273 273 276 278 280 280 280 281 280 281 282 282 283 281 280 282 285 288 291 294 298 302 307 311 314 319 323 327 330 333 335 337 338 340 341 343
273 275 275 276 278 280 281 281 281 283 285 284 283 283 283 281 280 283 286 289 293 297 300 304 309 315 321 326 329 331 333 336 339 341 343 345 346 347
276 276 277 278 280 281 281 281 282 284 285 284 282 280 278 276 278 282 283 287 291 296 303 310 318 325 330 333 335 336 339 341 344 346 347 348 349 350
280 279 278 280 280 280 282 283 284 282 281 282 282 280 276 276 279 279 281 286 292 301 310 319 329 336 339 341 342 343 345 347 349 350 351 352 353 354
283 278 282 284 283 283 283 285 284 281 281 281 280 277 274 276 277 277 284 288 295 306 319 332 340 344 346 346 347 350 351 353 354 354 354 355 355 356
293 285 284 287 288 287 286 284 281 281 282 279 275 271 272 274 276 283 288 292 301 316 332 341 346 349 350 352 355 356 357 357 358 357 356 356 357 357
316 306 302 303 301 297 294 290 286 285 283 274 265 259 268 278 278 284 289 299 311 332 344 348 350 353 356 358 0 1 0 0 360 359 358 359 358 357
360 352 342 333 326 321 316 312 308 300 294 278 249 239 259 284 316 327 332 342 346 349 351 353 355 358 360 1 2 4 3 1 359 359 359 358 358 357
27 21 14 7 358 352 350 351 1 18 64 121 128 119 105 101 82 57 41 21 3 356 354 355 358 360 1 2 3 3 1 360 359 359 359 359 359 359
38 34 31 28 26 26 28 37 56 73 85 92 93 93 92 90 78 61 41 15 2 358 357 357 358 359 360 0 0 359 358 358 358 358 359 359 359 359
44 43 44 45 46 49 53 61 71 76 78 78 80 87 87 77 64 44 20 6 359 356 354 354 355 356 356 357 356 356 355 355 356 357 357 357 357 357
Height
5777 5777 5778 5779 5779 5780 5780 5780 5781 5780 5779 5778 5778 5777 5776 5774 5773 5771 5769 5767 5764 5762 5759 5756 5753 5749 5746 5742 5738 5734 5730 5726 5722 5719 5715 5711 5707 5704
5768 5769 5769 5770 5770 5770 5770 5770 5770 5771 5770 5769 5768 5767 5766 5764 5763 5761 5759 5756 5754 5751 5748 5745 5742 5738 5735 5731 5727 5723 5719 5715 5711 5707 5703 5699 5696 5692
5760 5760 5760 5761 5761 5761 5761 5761 5761 5761 5760 5759 5758 5757 5756 5754 5752 5751 5748 5746 5744 5741 5738 5734 5731 5728 5724 5721 5717 5713 5709 5705 5701 5697 5692 5689 5685 5682
5752 5752 5752 5752 5752 5752 5752 5752 5752 5751 5751 5750 5749 5748 5746 5745 5743 5741 5739 5736 5733 5731 5728 5725 5722 5718 5715 5711 5708 5704 5700 5696 5692 5688 5684 5680 5676 5672
5744 5744 5744 5744 5744 5744 5744 5743 5743 5743 5742 5741 5740 5738 5737 5735 5733 5731 5729 5727 5724 5721 5718 5715 5712 5709 5706 5702 5699 5696 5692 5688 5684 5680 5676 5672 5668 5664
5737 5737 5737 5737 5736 5736 5736 5735 5735 5734 5733 5732 5731 5729 5728 5726 5725 5723 5721 5718 5716 5713 5710 5707 5704 5701 5698 5695 5692 5688 5685 5681 5677 5673 5669 5665 5661 5657
5730 5730 5729 5729 5729 5729 5728 5728 5727 5726 5725 5724 5722 5721 5719 5718 5716 5714 5713 5711 5708 5706 5703 5700 5697 5694 5691 5688 5685 5682 5679 5675 5671 5668 5664 5659 5655 5651
5723 5723 5723 5722 5722 5722 5721 5720 5720 5719 5717 5716 5714 5713 5712 5710 5708 5707 5705 5703 5701 5699 5696 5694 5691 5688 5685 5683 5680 5677 5673 5670 5666 5663 5658 5654 5650 5645
5716 5716 5716 5716 5715 5715 5714 5713 5712 5711 5710 5708 5707 5706 5704 5703 5701 5700 5698 5696 5695 5692 5690 5688 5685 5683 5681 5678 5675 5672 5669 5665 5662 5658 5654 5650 5645 5641
5710 5710 5709 5709 5709 5708 5707 5706 5705 5704 5702 5701 5700 5698 5697 5695 5694 5693 5692 5690 5689 5687 5685 5683 5681 5679 5676 5674 5671 5668 5665 5661 5657 5654 5650 5646 5642 5637
5703 5703 5703 5703 5702 5701 5700 5699 5698 5697 5695 5694 5693 5692 5690 5689 5688 5687 5686 5685 5684 5682 5681 5679 5677 5675 5673 5671 5668 5665 5661 5658 5654 5651 5647 5642 5638 5634
5698 5697 5697 5697 5696 5695 5694 5693 5692 5691 5690 5688 5687 5686 5685 5684 5683 5682 5681 5681 5679 5678 5677 5675 5674 5672 5670 5667 5665 5662 5658 5655 5652 5648 5644 5640 5636 5631
5692 5692 5691 5691 5690 5689 5689 5688 5687 5686 5685 5684 5682 5681 5680 5680 5679 5678 5678 5677 5676 5675 5674 5672 5671 5669 5667 5665 5662 5659 5656 5653 5649 5646 5642 5638 5633 5629
5687 5687 5686 5686 5685 5684 5684 5683 5682 5681 5680 5679 5678 5677 5677 5676 5675 5675 5674 5674 5673 5672 5671 5670 5668 5667 5665 5662 5660 5657 5655 5651 5648 5644 5640 5636 5632 5627
5683 5682 5682 5681 5681 5680 5680 5679 5678 5677 5676 5675 5675 5674 5673 5673 5673 5672 5672 5671 5670 5670 5669 5667 5666 5664 5663 5661 5658 5656 5653 5650 5646 5643 5639 5635 5630 5626
5679 5679 5678 5678 5677 5677 5676 5675 5674 5673 5673 5672 5671 5671 5671 5671 5670 5670 5669 5669 5668 5668 5667 5665 5664 5663 5661 5659 5657 5654 5652 5649 5645 5641 5638 5634 5629 5625
5676 5675 5675 5675 5674 5673 5672 5672 5671 5671 5670 5670 5669 5669 5669 5668 5668 5668 5668 5667 5667 5666 5665 5664 5663 5661 5660 5658 5656 5653 5650 5647 5644 5641 5637 5633 5629 5624
5673 5673 5673 5672 5671 5670 5670 5670 5669 5668 5668 5667 5667 5667 5667 5667 5667 5666 5666 5666 5665 5665 5664 5663 5662 5661 5659 5657 5655 5652 5649 5646 5643 5640 5636 5632 5628 5624
5672 5671 5671 5670 5670 5669 5668 5668 5668 5667 5666 5666 5666 5666 5666 5666 5666 5666 5665 5665 5665 5664 5664 5663 5661 5660 5658 5656 5654 5652 5649 5646 5643 5639 5636 5632 5627 5623
5671 5671 5670 5669 5669 5668 5668 5667 5666 5666 5666 5666 5666 5666 5665 5665 5666 5665 5665 5665 5664 5664 5663 5662 5661 5659 5657 5656 5654 5651 5648 5645 5642 5639 5635 5631 5627 5623
5672 5671 5670 5669 5669 5668 5667 5667 5666 5666 5665 5665 5665 5665 5665 5665 5666 5665 5665 5665 5664 5664 5663 5662 5660 5659 5657 5655 5653 5651 5648 5645 5642 5638 5635 5631 5626 5622
5673 5672 5671 5670 5669 5668 5668 5667 5666 5666 5666 5666 5666 5666 5666 5666 5666 5666 5665 5665 5664 5663 5662 5661 5660 5658 5657 5655 5653 5650 5648 5645 5641 5638 5634 5630 5626 5621
5674 5673 5672 5671 5670 5669 5668 5668 5667 5667 5667 5667 5667 5667 5667 5667 5666 5666 5666 5665 5664 5663 5662 5661 5660 5658 5656 5654 5652 5650 5647 5644 5641 5637 5634 5629 5625 5621